Total_Precipitation_Accumulation
0.74 0.78 0.83 0.86 0.91 1.02 1.13 1.21 1.24 1.25 1.25 1.32 1.42 1.50 1.51 1.53 1.57 1.56 1.49 1.45 1.39 1.31 1.29 1.33 1.34 1.29 1.33 1.33 1.36 1.46 1.57 1.71 1.74 1.42 1.20 1.20 1.30 1.32 1.33 1.23 1.18 1.20 1.21
0.61 0.62 0.65 0.70 0.74 0.82 0.91 0.99 1.05 1.10 1.12 1.15 1.14 1.16 1.25 1.31 1.38 1.43 1.39 1.35 1.32 1.25 1.20 1.24 1.26 1.26 1.30 1.31 1.35 1.42 1.47 1.54 1.60 1.48 1.26 1.15 1.11 1.07 1.05 1.02 0.96 0.92 0.91
0.53 0.56 0.58 0.58 0.60 0.65 0.70 0.76 0.79 0.86 0.95 1.01 1.01 1.00 0.98 1.00 1.07 1.18 1.25 1.28 1.26 1.23 1.23 1.23 1.23 1.28 1.31 1.32 1.36 1.40 1.39 1.35 1.33 1.30 1.14 0.98 0.91 0.89 0.92 0.89 0.87 0.85 0.78
0.47 0.50 0.54 0.53 0.54 0.56 0.57 0.61 0.62 0.64 0.67 0.73 0.78 0.80 0.84 0.86 0.87 0.93 1.02 1.12 1.20 1.23 1.26 1.27 1.26 1.32 1.40 1.42 1.41 1.39 1.34 1.29 1.22 1.16 1.08 0.98 0.88 0.81 0.84 0.87 0.86 0.83 0.78
0.46 0.45 0.46 0.49 0.50 0.50 0.49 0.49 0.48 0.48 0.49 0.52 0.59 0.63 0.69 0.73 0.77 0.82 0.84 0.91 1.00 1.09 1.19 1.26 1.31 1.41 1.45 1.39 1.24 1.14 1.09 1.09 1.06 1.04 0.98 0.89 0.81 0.76 0.75 0.70 0.71 0.75 0.77
0.46 0.44 0.43 0.45 0.47 0.47 0.44 0.40 0.40 0.42 0.45 0.47 0.52 0.56 0.62 0.66 0.84 0.87 0.80 0.78 0.88 0.96 1.02 1.08 1.17 1.23 1.16 1.14 1.08 0.99 0.99 1.02 1.01 0.91 0.79 0.69 0.59 0.55 0.56 0.62 0.69 0.81 0.86
0.52 0.48 0.43 0.43 0.45 0.46 0.47 0.47 0.46 0.46 0.49 0.52 0.53 0.57 0.60 0.68 0.83 0.85 0.93 0.85 0.86 0.90 0.90 0.91 0.89 0.87 0.88 0.76 0.79 0.80 0.80 0.82 0.79 0.72 0.67 0.55 0.48 0.45 0.57 0.68 0.70 0.72 0.66
0.64 0.62 0.56 0.57 0.59 0.61 0.64 0.66 0.64 0.64 0.66 0.67 0.66 0.69 0.73 0.81 0.90 0.86 0.87 0.81 0.79 0.75 0.71 0.70 0.69 0.65 0.66 0.68 0.68 0.67 0.59 0.53 0.52 0.47 0.43 0.41 0.43 0.49 0.60 0.73 0.76 0.78 0.70
0.80 0.87 0.85 0.83 0.85 0.88 0.93 0.96 0.94 0.92 0.90 0.90 0.90 0.89 0.87 0.86 0.84 0.73 0.68 0.64 0.64 0.58 0.53 0.52 0.55 0.53 0.60 0.70 0.69 0.65 0.59 0.53 0.52 0.53 0.53 0.52 0.56 0.60 0.64 0.75 0.89 1.03 0.96
0.90 0.97 0.95 0.95 0.95 0.95 0.97 0.96 0.93 0.89 0.87 0.84 0.83 0.80 0.73 0.65 0.61 0.55 0.51 0.47 0.48 0.44 0.42 0.45 0.54 0.56 0.65 0.75 0.73 0.70 0.67 0.58 0.55 0.57 0.55 0.53 0.51 0.52 0.59 0.58 0.68 0.98 1.00
0.87 0.84 0.79 0.76 0.72 0.69 0.66 0.64 0.62 0.60 0.59 0.55 0.52 0.49 0.43 0.40 0.40 0.40 0.43 0.42 0.43 0.45 0.43 0.43 0.46 0.59 0.67 0.74 0.79 0.75 0.71 0.69 0.64 0.63 0.61 0.58 0.57 0.57 0.55 0.51 0.53 0.77 1.00
0.60 0.52 0.46 0.44 0.43 0.43 0.43 0.40 0.37 0.37 0.37 0.35 0.32 0.31 0.29 0.28 0.31 0.34 0.40 0.44 0.48 0.47 0.43 0.38 0.40 0.56 0.66 0.70 0.71 0.75 0.83 0.82 0.72 0.70 0.70 0.65 0.61 0.58 0.55 0.51 0.52 0.56 0.63
0.31 0.26 0.23 0.23 0.24 0.25 0.28 0.28 0.25 0.24 0.26 0.27 0.28 0.28 0.29 0.28 0.29 0.34 0.38 0.43 0.48 0.48 0.45 0.47 0.52 0.59 0.63 0.63 0.65 0.70 0.75 0.73 0.72 0.72 0.66 0.57 0.51 0.50 0.54 0.58 0.61 0.61 0.61
0.23 0.22 0.20 0.20 0.20 0.22 0.25 0.28 0.29 0.28 0.29 0.31 0.32 0.33 0.32 0.31 0.30 0.32 0.37 0.42 0.47 0.50 0.50 0.52 0.55 0.59 0.62 0.64 0.66 0.65 0.65 0.68 0.71 0.68 0.59 0.53 0.53 0.56 0.59 0.61 0.66 0.70 0.77
0.23 0.24 0.25 0.23 0.23 0.25 0.27 0.31 0.36 0.35 0.37 0.43 0.42 0.42 0.43 0.40 0.36 0.45 0.51 0.51 0.53 0.56 0.63 0.64 0.61 0.58 0.60 0.61 0.61 0.62 0.63 0.68 0.72 0.67 0.67 0.66 0.64 0.63 0.62 0.60 0.68 0.76 0.82
0.28 0.28 0.30 0.32 0.31 0.31 0.33 0.36 0.40 0.43 0.45 0.46 0.46 0.49 0.48 0.48 0.51 0.56 0.58 0.59 0.62 0.70 0.77 0.70 0.59 0.55 0.53 0.54 0.57 0.61 0.64 0.66 0.67 0.72 0.77 0.77 0.77 0.75 0.74 0.70 0.74 0.83 0.81
0.36 0.37 0.39 0.40 0.40 0.41 0.42 0.42 0.45 0.47 0.51 0.51 0.48 0.48 0.50 0.53 0.57 0.59 0.61 0.64 0.68 0.74 0.72 0.58 0.49 0.48 0.49 0.50 0.54 0.60 0.63 0.63 0.70 0.81 0.85 0.85 0.87 0.88 0.86 0.84 0.82 0.86 0.83
0.33 0.36 0.40 0.41 0.43 0.44 0.45 0.46 0.47 0.49 0.50 0.48 0.47 0.49 0.52 0.55 0.59 0.63 0.68 0.74 0.74 0.67 0.58 0.51 0.48 0.49 0.52 0.56 0.60 0.63 0.67 0.69 0.76 0.83 0.85 0.87 0.93 1.00 1.00 0.92 0.87 0.89 0.91
0.33 0.36 0.40 0.43 0.45 0.47 0.48 0.49 0.49 0.48 0.48 0.47 0.46 0.52 0.59 0.64 0.67 0.69 0.72 0.72 0.65 0.57 0.51 0.50 0.51 0.55 0.59 0.64 0.68 0.71 0.75 0.78 0.78 0.84 0.86 0.86 0.93 1.07 1.03 0.88 0.89 0.92 0.99
0.35 0.43 0.49 0.49 0.49 0.50 0.52 0.55 0.54 0.52 0.52 0.51 0.51 0.56 0.69 0.79 0.74 0.68 0.65 0.61 0.59 0.56 0.53 0.56 0.58 0.61 0.67 0.72 0.76 0.80 0.83 0.81 0.82 0.86 0.86 0.87 0.92 1.05 1.04 0.93 0.93 0.99 0.95
0.39 0.44 0.52 0.53 0.50 0.52 0.56 0.59 0.59 0.59 0.58 0.54 0.53 0.61 0.84 0.91 0.78 0.66 0.63 0.61 0.62 0.64 0.65 0.67 0.67 0.69 0.73 0.77 0.81 0.83 0.84 0.80 0.79 0.85 0.88 0.90 0.97 1.04 0.97 0.98 0.96 0.98 1.04
0.44 0.45 0.49 0.52 0.53 0.57 0.62 0.64 0.65 0.63 0.58 0.56 0.54 0.60 0.76 0.75 0.68 0.66 0.63 0.61 0.62 0.65 0.71 0.78 0.76 0.71 0.76 0.86 0.92 0.95 0.89 0.79 0.76 0.84 0.91 0.92 0.97 1.00 1.01 1.06 1.06 1.12 1.15
0.49 0.50 0.51 0.51 0.54 0.60 0.63 0.59 0.60 0.60 0.58 0.57 0.57 0.58 0.62 0.62 0.59 0.60 0.62 0.63 0.65 0.67 0.70 0.75 0.76 0.69 0.67 0.78 0.90 1.05 1.07 0.89 0.82 0.94 1.12 1.12 1.11 1.13 1.20 1.23 1.15 1.12 1.02
0.49 0.51 0.52 0.53 0.54 0.56 0.57 0.55 0.55 0.57 0.59 0.59 0.58 0.57 0.57 0.58 0.58 0.58 0.62 0.65 0.68 0.69 0.70 0.73 0.72 0.69 0.67 0.74 0.80 0.86 0.93 1.02 1.22 1.35 1.49 1.68 1.57 1.39 1.34 1.26 1.12 1.04 1.02
0.50 0.52 0.54 0.55 0.57 0.58 0.58 0.56 0.55 0.56 0.58 0.59 0.59 0.58 0.56 0.57 0.57 0.57 0.59 0.64 0.67 0.69 0.67 0.68 0.71 0.72 0.71 0.73 0.75 0.77 0.86 1.02 1.32 1.72 1.89 1.81 1.55 1.33 1.31 1.26 1.12 1.07 1.06
0.50 0.54 0.57 0.58 0.59 0.58 0.58 0.58 0.57 0.57 0.59 0.59 0.60 0.61 0.61 0.61 0.60 0.60 0.61 0.64 0.66 0.65 0.65 0.65 0.66 0.69 0.72 0.74 0.71 0.76 0.88 0.98 1.08 1.27 1.63 1.73 1.53 1.30 1.29 1.36 1.22 1.16 1.14